Location: Frankford
(38.5173°N, 75.2349°W)
Time: 04:06:41
(UTC+00:00)

Daily predictions for brighter satellites

Satellite Brightness Start Highest point End
(mag) Time Altitude Azimuth Time Altitude Azimuth Time Altitude Azimuth
ISS -0.7 00:01:46 10° NW 00:02:04 12° NW 00:02:04 12° NW
Cosmos 2266 Rocket 4.0 00:00:57 10° N 00:07:22 85° W 00:13:46 10° S
Cosmos 2082 Rocket 4.1 00:03:13 10° WSW 00:07:49 25° WNW 00:11:58 12° N
SL-16 R/B 3.8 00:02:58 10° NNW 00:05:05 22° N 00:05:05 22° N
ATLAS 5 CENTAUR R/B 4.5 00:07:27 10° NNW 00:08:17 13° NNW 00:08:17 13° NNW
Meteor 1-27 Rocket 4.1 00:14:57 10° SSW 00:19:10 53° SSW 00:19:10 53° SSW
CZ-2C R/B 3.6 00:18:11 10° SW 00:19:38 19° SW 00:19:38 19° SW
CZ-4C R/B 4.3 01:11:39 10° NW 01:18:33 35° WSW 01:21:47 27° SSW
CENTAUR R/B 4.0 08:51:33 29° NNE 08:51:33 29° NNE 08:54:46 10° NNE
Cosmos 1943 Rocket 4.4 08:53:41 17° NNE 08:53:41 17° NNE 08:54:54 10° NNE
Cosmos 2034 Rocket 4.5 09:06:42 55° SE 09:06:42 55° SE 09:11:43 10° SSE
NOSS 3-2 (C) 4.3 09:13:26 37° NNE 09:13:26 37° NNE 09:17:09 10° NNE
Cosmos 2344 4.1 09:14:06 40° N 09:14:06 40° N 09:19:22 10° NNE
Cosmos 1570 Rocket 4.5 09:30:49 52° SSE 09:30:49 52° SSE 09:34:45 10° SSE
Tsikada Rocket 3.8 09:25:58 10° S 09:32:10 89° WNW 09:38:28 10° N
Meteor 2-3 Rocket 4.3 09:40:23 43° N 09:40:23 43° N 09:44:12 10° N
USA 238 DEB 4.0 09:40:07 45° NNW 09:40:07 45° NNW 09:45:34 10° NNE
USA 238 4.0 09:40:11 46° NNW 09:40:11 46° NNW 09:45:40 10° NNE
BREEZE-M DEB (TANK) 3.4 09:43:04 55° N 09:43:53 63° NE 09:57:00 10° ESE
USA 215 4.3 09:41:31 10° E 09:47:19 35° NNE 09:50:34 22° NNW
Cosmos 1241 Rocket 4.3 09:49:45 50° NW 09:51:28 85° WSW 09:57:40 10° SSE
Meteor 1-31 Rocket 4.1 09:49:15 10° NNE 09:52:57 40° E 09:56:38 10° S
Hubble Space Telescope 3.4 09:54:01 10° S 09:54:01 10° S 09:54:16 10° S
Cosmos 921 Rocket 3.4 09:53:48 45° NNE 09:54:57 64° ENE 09:59:23 10° SSE
FALCON 9 R/B 4.5 09:39:35 32° W 09:55:00 76° S 10:03:19 10° ESE
Cosmos 1782 3.5 09:57:35 44° S 09:57:35 44° S 10:00:19 10° S
Cosmos 2263 4.2 09:51:50 10° SSW 09:57:29 79° ESE 10:03:14 10° NNE
Meteor 1-26 Rocket 4.1 09:56:03 25° NNW 09:59:34 77° W 10:05:16 10° S
CZ-3 R/B 4.5 09:48:18 10° SW 09:59:54 21° S 10:05:26 10° SE
H-2A R/B 2.8 09:57:03 10° NNE 10:00:46 75° ESE 10:04:31 10° S
Cosmos 1862 3.9 09:57:43 10° S 10:01:33 55° E 10:05:26 10° NNE
Cosmos 2208 Rocket 4.1 10:02:48 55° W 10:03:17 57° WSW 10:08:31 10° S
Cosmos 1867 3.7 10:03:11 51° WSW 10:03:28 52° WSW 10:08:42 10° S
Gbstr 26 Del rocket 3.7 10:04:20 37° SSW 10:04:20 37° SSW 10:07:36 10° SSE
Okean 3 Rocket 4.2 09:59:15 10° S 10:03:40 57° E 10:08:09 10° NNE
Cosmos 1503 Rocket 4.4 10:02:25 10° S 10:07:36 66° ESE 10:12:52 10° NNE
Cosmos 2369 Rocket 2.1 10:05:54 31° SW 10:08:31 59° WNW 10:14:03 10° NNE
Cosmos 1151 Rocket 3.4 10:05:51 15° N 10:09:28 66° E 10:13:47 10° SSE
SL-19 R/B 4.1 10:05:47 10° SSE 10:11:24 81° WSW 10:16:12 14° NNW
Cosmos 1766 Rocket 3.5 10:08:24 10° S 10:12:44 83° E 10:17:05 10° N
Meteor 2-13 Rocket 4.3 10:07:09 10° SSW 10:13:12 63° W 10:19:14 10° N
SJ-12 3.8 10:10:20 10° N 10:14:28 73° WNW 10:18:34 10° SSW
Cosmos 1486 Rocket 4.0 10:09:45 10° SSW 10:14:58 61° WNW 10:20:13 10° N
Cosmos 1656 Rocket 3.5 10:19:38 10° SW 10:24:57 60° WNW 10:30:20 10° NNE
Iridium 2 3.7 10:21:54 10° SSW 10:25:35 52° W 10:26:48 36° NNW
Cosmos 1328 Rocket 3.8 10:21:34 10° N 10:25:57 70° E 10:30:16 10° SSE
DNEPR-1 R/B 4.4 10:27:08 17° NNW 10:30:55 65° ENE 10:36:49 10° SE
COSMO-SKYMED 1 2.5 10:27:19 10° S 10:31:38 69° W 10:35:30 13° NNW
CZ-2C R/B 2.6 10:27:33 10° S 10:33:03 72° WSW 10:38:28 10° NNW
Cosmos 1943 Rocket 3.8 10:35:16 16° NNW 10:35:16 16° NNW 10:37:18 10° N
CENTAUR R/B 3.8 10:38:45 19° NW 10:39:52 20° NNW 10:44:51 10° NNE
Envisat 3.2 10:36:06 10° N 10:40:54 44° WNW 10:45:41 10° SW
Cosmos 2098 Rocket 3.6 10:41:29 10° SW 10:44:55 32° WNW 10:49:08 10° N
Cosmos 1408 Rocket 3.5 10:42:38 10° S 10:46:56 90° ENE 10:51:15 10° N
DELTA 2 R/B (1) 3.5 10:47:13 18° W 10:51:22 85° N 10:56:56 10° E
Cosmos 1340 Rocket 3.7 10:48:33 10° S 10:52:21 50° E 10:56:13 10° NNE
Cosmos 1174 3.5 10:51:39 10° SSW 10:54:36 62° ESE 10:57:35 10° NE
Cosmos 2279 Rocket 4.1 10:49:06 10° NNW 10:55:06 55° W 11:01:06 10° SSW
Cosmos 1743 Rocket 4.3 10:51:00 10° S 10:55:17 56° E 10:59:34 10° NNE
SMAP 4.3 10:52:58 10° NNE 10:57:26 44° E 11:01:52 10° S
Nadezhda 4 Rocket 4.0 10:54:55 10° S 11:01:04 86° W 11:07:19 10° N
NOAA 11 4.1 10:56:22 10° N 11:01:48 68° WNW 11:07:14 10° SSW
CZ-4B R/B 3.9 11:00:02 10° ESE 11:02:36 21° ENE 11:05:09 10° NNE
Meteor 1-27 Rocket 4.0 10:57:54 10° N 11:03:35 75° E 11:09:21 10° SSE
Cosmos 1812 4.0 11:03:50 16° WNW 11:05:17 20° W 11:08:06 10° SW
Meteor 2-15 Rocket 4.4 11:00:07 10° N 11:06:14 90° WSW 11:12:18 10° S
ATLAS 3B R/B 2.8 11:00:45 10° SSW 11:07:12 78° ESE 11:13:57 10° NE
Cosmos 1515 Rocket 3.5 11:03:24 10° N 11:07:45 74° W 11:12:04 10° S
Cosmos 1939 Rocket 3.0 11:04:23 10° NNE 11:08:17 73° E 11:12:08 10° S
Cosmos 1354 Rocket 4.4 11:03:35 10° SW 11:08:33 41° WNW 11:13:34 10° N
SJ 16-02 1.2 11:05:05 10° SSW 11:09:27 81° WNW 11:13:51 10° NNE
Meteor PRIRODA 3.7 11:08:43 10° N 11:12:15 53° WNW 11:15:47 10° SSW
ADEOS 3.9 11:10:08 10° N 11:15:04 43° WNW 11:19:58 10° SW
Cosmos 1092 Rocket 4.3 11:10:30 10° S 11:16:42 74° E 11:22:59 10° N
CZ-4C R/B 3.9 11:16:21 10° SSW 11:19:01 25° W 11:21:40 10° NW
ATLAS 5 CENTAUR R/B 1.3 11:17:42 10° SW 11:21:23 55° NW 11:25:27 10° NNE
SL-8 R/B 3.9 11:17:47 10° NW 11:22:32 69° NNE 11:27:17 10° ESE
Cosmos 1500 Rocket 3.6 11:19:17 10° SSW 11:23:40 63° W 11:28:08 10° N
SL-4 R/B 3.9 11:22:10 10° SSW 11:25:15 29° SE 11:28:30 10° ENE
Meteor 1-31 Rocket 4.5 11:24:57 10° NW 11:26:56 14° WNW 11:28:55 10° W
CZ-2C R/B 3.2 11:23:06 10° N 11:27:48 47° WNW 11:32:42 10° SW
USA 215 3.3 11:23:25 10° SE 11:29:57 75° SW 11:36:30 10° NW
Meteor 1-25 Rocket 4.3 11:24:46 10° S 11:30:25 86° E 11:36:02 10° N
Sich 1 3.3 11:29:54 10° S 11:34:10 73° E 11:38:26 10° NNE
Cosmos 1805 Rocket 3.5 11:31:08 10° S 11:35:32 82° W 11:39:55 10° N
